Year,Month,Day,Hour,Minute,Value (Times are PST for windgust in km/hr)
2022,05,18,00,24,1.60
2022,05,18,00,29,1.60
2022,05,18,00,30,1.60
2022,05,18,00,53,1.60
2022,05,18,00,58,1.60
2022,05,18,01,17,1.60
2022,05,18,01,18,1.60
2022,05,18,01,21,1.60
2022,05,18,01,22,3.20
2022,05,18,01,23,3.20
2022,05,18,01,24,3.20
2022,05,18,01,25,4.80
2022,05,18,01,26,1.60
2022,05,18,01,27,1.60
2022,05,18,01,30,1.60
2022,05,18,01,31,3.20
2022,05,18,01,32,4.80
2022,05,18,01,33,4.80
2022,05,18,01,34,4.80
2022,05,18,01,35,4.80
2022,05,18,01,36,6.40
2022,05,18,01,37,4.80
2022,05,18,01,38,1.60
2022,05,18,01,39,1.60
2022,05,18,01,42,1.60
2022,05,18,01,44,4.80
2022,05,18,01,45,6.40
2022,05,18,01,46,6.40
2022,05,18,01,47,6.40
2022,05,18,01,48,6.40
2022,05,18,01,49,6.40
2022,05,18,01,50,4.80
2022,05,18,01,51,3.20
2022,05,18,01,52,3.20
2022,05,18,01,53,4.80
2022,05,18,01,54,6.40
2022,05,18,01,55,6.40
2022,05,18,01,56,4.80
2022,05,18,01,57,4.80
2022,05,18,01,58,4.80
2022,05,18,01,59,6.40
2022,05,18,02,00,8.10
2022,05,18,02,01,8.10
2022,05,18,02,02,6.40
2022,05,18,02,03,3.20
2022,05,18,02,04,3.20
2022,05,18,02,05,4.80
2022,05,18,02,06,3.20
2022,05,18,02,07,3.20
2022,05,18,02,08,1.60
2022,05,18,02,09,1.60
2022,05,18,02,10,3.20
2022,05,18,02,11,1.60
2022,05,18,02,12,1.60
2022,05,18,02,13,1.60
2022,05,18,02,14,3.20
2022,05,18,02,15,3.20
2022,05,18,02,16,1.60
2022,05,18,02,17,1.60
2022,05,18,02,18,3.20
2022,05,18,02,19,3.20
2022,05,18,02,20,3.20
2022,05,18,02,21,1.60
2022,05,18,02,22,3.20
2022,05,18,02,23,3.20
2022,05,18,02,24,1.60
2022,05,18,02,25,1.60
2022,05,18,02,26,1.60
2022,05,18,02,27,1.60
2022,05,18,02,28,1.60
2022,05,18,02,29,1.60
2022,05,18,02,30,1.60
2022,05,18,02,33,1.60
2022,05,18,02,34,1.60
2022,05,18,02,38,1.60
2022,05,18,02,39,1.60
2022,05,18,02,40,1.60
2022,05,18,02,44,1.60
2022,05,18,02,45,1.60
2022,05,18,02,48,1.60
2022,05,18,02,49,3.20
2022,05,18,02,50,3.20
2022,05,18,02,51,3.20
2022,05,18,02,52,6.40
2022,05,18,02,53,6.40
2022,05,18,02,54,8.10
2022,05,18,02,55,8.10
2022,05,18,02,56,8.10
2022,05,18,02,57,9.60
2022,05,18,02,58,8.10
2022,05,18,02,59,8.10
2022,05,18,03,00,9.60
2022,05,18,03,01,9.60
2022,05,18,03,02,6.40
2022,05,18,03,03,8.10
2022,05,18,03,04,8.10
2022,05,18,03,05,8.10
2022,05,18,03,06,9.60
2022,05,18,03,07,11.30
2022,05,18,03,08,9.60
2022,05,18,03,09,9.60
2022,05,18,03,10,9.60
2022,05,18,03,11,8.10
2022,05,18,03,12,8.10
2022,05,18,03,13,8.10
2022,05,18,03,14,9.60
2022,05,18,03,15,9.60
2022,05,18,03,16,8.10
2022,05,18,03,17,6.40
2022,05,18,03,18,4.80
2022,05,18,03,19,4.80
2022,05,18,03,20,6.40
2022,05,18,03,21,4.80
2022,05,18,03,22,6.40
2022,05,18,03,23,6.40
2022,05,18,03,24,6.40
2022,05,18,03,25,8.10
2022,05,18,03,26,8.10
2022,05,18,03,27,8.10
2022,05,18,03,28,6.40
2022,05,18,03,29,1.60
2022,05,18,03,30,6.40
2022,05,18,03,31,8.10
2022,05,18,03,32,9.60
2022,05,18,03,33,8.10
2022,05,18,03,34,6.40
2022,05,18,03,35,8.10
2022,05,18,03,36,8.10
2022,05,18,03,37,9.60
2022,05,18,03,38,9.60
2022,05,18,03,39,9.60
2022,05,18,03,40,8.10
2022,05,18,03,41,9.60
2022,05,18,03,42,4.80
2022,05,18,03,43,3.20
2022,05,18,03,44,6.40
2022,05,18,03,45,6.40
2022,05,18,03,46,6.40
2022,05,18,03,47,6.40
2022,05,18,03,48,4.80
2022,05,18,03,49,6.40
2022,05,18,03,50,8.10
2022,05,18,03,51,9.60
2022,05,18,03,52,8.10
2022,05,18,03,53,8.10
2022,05,18,03,54,9.60
2022,05,18,03,55,8.10
2022,05,18,03,56,9.60
2022,05,18,03,57,6.40
2022,05,18,03,58,4.80
2022,05,18,03,59,4.80
2022,05,18,04,00,4.80
2022,05,18,04,01,4.80
2022,05,18,04,02,4.80
2022,05,18,04,03,4.80
2022,05,18,04,04,6.40
2022,05,18,04,05,4.80
2022,05,18,04,06,3.20
2022,05,18,04,07,4.80
2022,05,18,04,08,4.80
2022,05,18,04,09,1.60
2022,05,18,04,10,3.20
2022,05,18,04,11,3.20
2022,05,18,04,12,3.20
2022,05,18,04,13,6.40
2022,05,18,04,14,4.80
2022,05,18,04,15,4.80
2022,05,18,04,16,6.40
2022,05,18,04,17,4.80
2022,05,18,04,18,4.80
2022,05,18,04,19,4.80
2022,05,18,04,20,4.80
2022,05,18,04,21,6.40
2022,05,18,04,22,8.10
2022,05,18,04,23,6.40
2022,05,18,04,24,6.40
2022,05,18,04,25,4.80
2022,05,18,04,26,4.80
2022,05,18,04,27,3.20
2022,05,18,04,28,3.20
2022,05,18,04,29,4.80
2022,05,18,04,30,4.80
2022,05,18,04,31,4.80
2022,05,18,04,32,3.20
2022,05,18,04,33,1.60
2022,05,18,04,34,3.20
2022,05,18,04,35,4.80
2022,05,18,04,36,4.80
2022,05,18,04,37,4.80
2022,05,18,04,38,3.20
2022,05,18,04,39,3.20
2022,05,18,04,40,1.60
2022,05,18,04,41,4.80
2022,05,18,04,42,4.80
2022,05,18,04,43,1.60
2022,05,18,04,44,3.20
2022,05,18,04,45,3.20
2022,05,18,04,46,6.40
2022,05,18,04,47,4.80
2022,05,18,04,48,4.80
2022,05,18,04,49,6.40
2022,05,18,04,50,4.80
2022,05,18,04,51,3.20
2022,05,18,04,52,4.80
2022,05,18,04,53,4.80
2022,05,18,04,54,3.20
2022,05,18,04,55,3.20
2022,05,18,04,56,1.60
2022,05,18,04,57,3.20
2022,05,18,04,58,1.60
2022,05,18,04,59,1.60
2022,05,18,05,00,3.20
2022,05,18,05,01,1.60
2022,05,18,05,02,3.20
2022,05,18,05,03,3.20
2022,05,18,05,08,1.60
2022,05,18,05,10,1.60
2022,05,18,05,11,1.60
2022,05,18,05,14,1.60
2022,05,18,05,17,1.60
2022,05,18,05,18,1.60
2022,05,18,05,19,1.60
2022,05,18,05,22,1.60
2022,05,18,05,27,1.60
2022,05,18,05,28,6.40
2022,05,18,05,29,8.10
2022,05,18,05,30,8.10
2022,05,18,05,31,6.40
2022,05,18,05,32,6.40
2022,05,18,05,33,6.40
2022,05,18,05,34,6.40
2022,05,18,05,35,6.40
2022,05,18,05,36,9.60
2022,05,18,05,37,8.10
2022,05,18,05,38,6.40
2022,05,18,05,39,6.40
2022,05,18,05,40,4.80
2022,05,18,05,41,3.20
2022,05,18,05,42,6.40
2022,05,18,05,43,4.80
2022,05,18,05,44,9.60
2022,05,18,05,45,9.60
2022,05,18,05,46,9.60
2022,05,18,05,47,8.10
2022,05,18,05,48,9.60
2022,05,18,05,49,9.60
2022,05,18,05,50,9.60
2022,05,18,05,51,11.30
2022,05,18,05,52,11.30
2022,05,18,05,53,11.30
2022,05,18,05,54,9.60
2022,05,18,05,55,9.60
2022,05,18,05,56,8.10
2022,05,18,05,57,6.40
2022,05,18,05,58,6.40
2022,05,18,05,59,6.40
2022,05,18,06,00,4.80
2022,05,18,06,01,6.40
2022,05,18,06,02,4.80
2022,05,18,06,03,3.20
2022,05,18,06,04,1.60
2022,05,18,06,05,4.80
2022,05,18,06,06,6.40
2022,05,18,06,07,6.40
2022,05,18,06,08,4.80
2022,05,18,06,09,3.20
2022,05,18,06,10,6.40
2022,05,18,06,11,8.10
2022,05,18,06,12,11.30
2022,05,18,06,13,9.60
2022,05,18,06,14,9.60
2022,05,18,06,15,4.80
2022,05,18,06,16,4.80
2022,05,18,06,17,8.10
2022,05,18,06,18,9.60
2022,05,18,06,19,9.60
2022,05,18,06,20,8.10
2022,05,18,06,21,6.40
2022,05,18,06,22,9.60
2022,05,18,06,23,8.10
2022,05,18,06,24,3.20
2022,05,18,06,25,6.40
2022,05,18,06,26,9.60
2022,05,18,06,27,9.60
2022,05,18,06,28,9.60
2022,05,18,06,29,9.60
2022,05,18,06,30,9.60
2022,05,18,06,31,6.40
2022,05,18,06,32,6.40
2022,05,18,06,33,8.10
2022,05,18,06,34,9.60
2022,05,18,06,35,4.80
2022,05,18,06,36,4.80
2022,05,18,06,37,6.40
2022,05,18,06,38,4.80
2022,05,18,06,39,8.10
2022,05,18,06,40,8.10
2022,05,18,06,41,8.10
2022,05,18,06,42,8.10
2022,05,18,06,43,9.60
2022,05,18,06,44,11.30
2022,05,18,06,45,11.30
2022,05,18,06,46,8.10
2022,05,18,06,47,8.10
2022,05,18,06,48,8.10
2022,05,18,06,49,3.20
2022,05,18,06,50,1.60
2022,05,18,06,51,4.80
2022,05,18,06,52,6.40
2022,05,18,06,53,3.20
2022,05,18,06,54,6.40
2022,05,18,06,55,6.40
2022,05,18,06,56,8.10
2022,05,18,06,57,9.60
2022,05,18,06,58,6.40
2022,05,18,06,59,6.40
2022,05,18,07,00,6.40
2022,05,18,07,01,11.30
2022,05,18,07,02,9.60
2022,05,18,07,03,4.80
2022,05,18,07,04,6.40
2022,05,18,07,05,4.80
2022,05,18,07,06,3.20
2022,05,18,07,07,6.40
2022,05,18,07,08,6.40
2022,05,18,07,09,6.40
2022,05,18,07,10,9.60
2022,05,18,07,11,8.10
2022,05,18,07,12,4.80
2022,05,18,07,13,4.80
2022,05,18,07,14,9.60
2022,05,18,07,15,6.40
2022,05,18,07,16,11.30
2022,05,18,07,17,16.10
2022,05,18,07,18,11.30
2022,05,18,07,19,8.10
2022,05,18,07,20,6.40
2022,05,18,07,21,9.60
2022,05,18,07,22,11.30
2022,05,18,07,23,19.30
2022,05,18,07,24,19.30
2022,05,18,07,25,8.10
2022,05,18,07,26,8.10
2022,05,18,07,27,4.80
2022,05,18,07,28,8.10
2022,05,18,07,29,3.20
2022,05,18,07,30,6.40
2022,05,18,07,31,6.40
2022,05,18,07,32,4.80
2022,05,18,07,33,6.40
2022,05,18,07,34,4.80
2022,05,18,07,37,1.60
2022,05,18,07,38,1.60
2022,05,18,07,39,1.60
2022,05,18,07,40,4.80
2022,05,18,07,41,4.80
2022,05,18,07,43,1.60
2022,05,18,07,44,4.80
2022,05,18,07,45,6.40
2022,05,18,07,46,4.80
2022,05,18,07,47,1.60
2022,05,18,07,48,3.20
2022,05,18,07,49,6.40
2022,05,18,07,50,3.20
2022,05,18,07,51,8.10
2022,05,18,07,52,6.40
2022,05,18,07,53,8.10
2022,05,18,07,54,3.20
2022,05,18,07,55,6.40
2022,05,18,07,56,11.30
2022,05,18,07,57,6.40
2022,05,18,07,58,4.80
2022,05,18,07,59,4.80
2022,05,18,08,01,4.80
2022,05,18,08,02,8.10
2022,05,18,08,03,6.40
2022,05,18,08,04,4.80
2022,05,18,08,05,4.80
2022,05,18,08,06,4.80
2022,05,18,08,07,9.60
2022,05,18,08,08,11.30
2022,05,18,08,09,16.10
2022,05,18,08,10,16.10
2022,05,18,08,11,17.70
2022,05,18,08,12,22.50
2022,05,18,08,13,27.40
2022,05,18,08,14,32.20
2022,05,18,08,15,29.00
2022,05,18,08,16,29.00
2022,05,18,08,17,27.40
2022,05,18,08,18,41.80
2022,05,18,08,19,32.20
2022,05,18,08,20,43.50
2022,05,18,08,21,46.70
2022,05,18,08,22,29.00
2022,05,18,08,23,33.80
2022,05,18,08,24,35.40
2022,05,18,08,25,33.80
2022,05,18,08,26,29.00
2022,05,18,08,27,29.00
2022,05,18,08,28,25.70
2022,05,18,08,29,30.60
2022,05,18,08,30,38.60
2022,05,18,08,31,35.40
2022,05,18,08,32,25.70
2022,05,18,08,33,32.20
2022,05,18,08,34,19.30
2022,05,18,08,35,27.40
2022,05,18,08,36,33.80
2022,05,18,08,37,33.80
2022,05,18,08,38,25.70
2022,05,18,08,39,22.50
2022,05,18,08,40,29.00
2022,05,18,08,41,33.80
2022,05,18,08,42,35.40
2022,05,18,08,43,32.20
2022,05,18,08,44,41.80
2022,05,18,08,45,43.50
2022,05,18,08,46,40.20
2022,05,18,08,47,37.00
2022,05,18,08,48,35.40
2022,05,18,08,49,45.10
2022,05,18,08,50,30.60
2022,05,18,08,51,27.40
2022,05,18,08,52,38.60
2022,05,18,08,53,33.80
2022,05,18,08,54,35.40
2022,05,18,08,55,33.80
2022,05,18,08,56,37.00
2022,05,18,08,57,35.40
2022,05,18,08,58,37.00
2022,05,18,08,59,48.30
2022,05,18,09,00,49.90
2022,05,18,09,01,54.70
2022,05,18,09,02,49.90
2022,05,18,09,03,54.70
2022,05,18,09,04,51.50
2022,05,18,09,05,43.50
2022,05,18,09,06,49.90
2022,05,18,09,07,46.70
2022,05,18,09,08,57.90
2022,05,18,09,09,49.90
2022,05,18,09,10,46.70
2022,05,18,09,11,46.70
2022,05,18,09,12,41.80
2022,05,18,09,13,35.40
2022,05,18,09,14,41.80
2022,05,18,09,15,48.30
2022,05,18,09,16,41.80
2022,05,18,09,17,41.80
2022,05,18,09,18,38.60
2022,05,18,09,19,40.20
2022,05,18,09,20,38.60
2022,05,18,09,21,32.20
2022,05,18,09,22,45.10
2022,05,18,09,23,51.50
2022,05,18,09,24,51.50
2022,05,18,09,25,43.50
2022,05,18,09,26,46.70
2022,05,18,09,27,38.60
2022,05,18,09,28,38.60
2022,05,18,09,29,53.10
2022,05,18,09,30,46.70
2022,05,18,09,31,49.90
2022,05,18,09,32,45.10
2022,05,18,09,33,51.50
2022,05,18,09,34,53.10
2022,05,18,09,35,53.10
2022,05,18,09,36,53.10
2022,05,18,09,37,57.90
2022,05,18,09,38,53.10
2022,05,18,09,39,62.70
2022,05,18,09,40,54.70
2022,05,18,09,41,53.10
2022,05,18,09,42,56.30
2022,05,18,09,43,41.80
2022,05,18,09,44,45.10
2022,05,18,09,45,53.10
2022,05,18,09,46,46.70
2022,05,18,09,47,49.90
2022,05,18,09,48,40.20
2022,05,18,09,49,32.20
2022,05,18,09,50,33.80
2022,05,18,09,51,46.70
2022,05,18,09,52,46.70
2022,05,18,09,53,45.10
2022,05,18,09,54,38.60
2022,05,18,09,55,49.90
2022,05,18,09,56,43.50
2022,05,18,09,57,48.30
2022,05,18,09,58,45.10
2022,05,18,09,59,38.60
2022,05,18,10,00,41.80
2022,05,18,10,01,38.60
2022,05,18,10,02,37.00
2022,05,18,10,03,49.90
2022,05,18,10,04,40.20
2022,05,18,10,05,49.90
2022,05,18,10,06,37.00
2022,05,18,10,07,37.00
2022,05,18,10,08,37.00
2022,05,18,10,09,45.10
2022,05,18,10,10,45.10
2022,05,18,10,11,46.70
2022,05,18,10,12,51.50
2022,05,18,10,13,37.00
2022,05,18,10,14,37.00
2022,05,18,10,15,40.20
2022,05,18,10,16,48.30
2022,05,18,10,17,40.20
2022,05,18,10,18,48.30
2022,05,18,10,19,49.90
2022,05,18,10,20,48.30
2022,05,18,10,21,43.50
2022,05,18,10,22,51.50
2022,05,18,10,23,46.70
2022,05,18,10,24,35.40
2022,05,18,10,25,35.40
2022,05,18,10,26,46.70
2022,05,18,10,27,41.80
2022,05,18,10,28,33.80
2022,05,18,10,29,54.70
2022,05,18,10,30,48.30
2022,05,18,10,31,53.10
2022,05,18,10,32,51.50
2022,05,18,10,33,45.10
2022,05,18,10,34,51.50
2022,05,18,10,35,56.30
2022,05,18,10,36,53.10
2022,05,18,10,37,45.10
2022,05,18,10,38,41.80
2022,05,18,10,39,51.50
2022,05,18,10,40,48.30
2022,05,18,10,41,41.80
2022,05,18,10,42,48.30
2022,05,18,10,43,53.10
2022,05,18,10,44,53.10
2022,05,18,10,45,51.50
2022,05,18,10,46,51.50
2022,05,18,10,47,53.10
2022,05,18,10,48,51.50
2022,05,18,10,49,51.50
2022,05,18,10,50,49.90
2022,05,18,10,51,53.10
2022,05,18,10,52,48.30
2022,05,18,10,53,59.50
2022,05,18,10,54,59.50
2022,05,18,10,55,59.50
2022,05,18,10,56,48.30
2022,05,18,10,57,49.90
2022,05,18,10,58,53.10
2022,05,18,10,59,43.50
2022,05,18,11,00,46.70
2022,05,18,11,01,61.20
2022,05,18,11,02,59.50
2022,05,18,11,03,57.90
2022,05,18,11,04,53.10
2022,05,18,11,05,53.10
2022,05,18,11,06,43.50
2022,05,18,11,07,48.30
2022,05,18,11,08,53.10
2022,05,18,11,09,53.10
2022,05,18,11,10,61.20
2022,05,18,11,11,56.30
2022,05,18,11,12,56.30
2022,05,18,11,13,59.50
2022,05,18,11,14,57.90
2022,05,18,11,15,53.10
2022,05,18,11,16,53.10
2022,05,18,11,17,54.70
2022,05,18,11,18,56.30
2022,05,18,11,19,56.30
2022,05,18,11,20,64.40
2022,05,18,11,21,62.70
2022,05,18,11,22,61.20
2022,05,18,11,23,59.50
2022,05,18,11,24,61.20
2022,05,18,11,25,53.10
2022,05,18,11,26,54.70
2022,05,18,11,27,57.90
2022,05,18,11,28,51.50
2022,05,18,11,29,46.70
2022,05,18,11,30,53.10
2022,05,18,11,31,61.20
2022,05,18,11,32,57.90
2022,05,18,11,33,49.90
2022,05,18,11,34,46.70
2022,05,18,11,35,51.50
2022,05,18,11,36,53.10
2022,05,18,11,37,49.90
2022,05,18,11,38,48.30
2022,05,18,11,39,46.70
2022,05,18,11,40,51.50
2022,05,18,11,41,49.90
2022,05,18,11,42,53.10
2022,05,18,11,43,61.20
2022,05,18,11,44,53.10
2022,05,18,11,45,49.90
2022,05,18,11,46,45.10
2022,05,18,11,47,51.50
2022,05,18,11,48,41.80
2022,05,18,11,49,53.10
2022,05,18,11,50,53.10
2022,05,18,11,51,53.10
2022,05,18,11,52,49.90
2022,05,18,11,53,51.50
2022,05,18,11,54,45.10
2022,05,18,11,55,41.80
2022,05,18,11,56,48.30
2022,05,18,11,57,43.50
2022,05,18,11,58,41.80
2022,05,18,11,59,49.90
2022,05,18,12,00,57.90
2022,05,18,12,01,53.10
2022,05,18,12,02,43.50
2022,05,18,12,03,53.10
2022,05,18,12,04,40.20
2022,05,18,12,05,53.10
2022,05,18,12,06,48.30
2022,05,18,12,07,41.80
2022,05,18,12,08,41.80
2022,05,18,12,09,38.60
2022,05,18,12,10,45.10
2022,05,18,12,11,43.50
2022,05,18,12,12,45.10
2022,05,18,12,13,54.70
2022,05,18,12,14,48.30
2022,05,18,12,15,45.10
2022,05,18,12,16,57.90
2022,05,18,12,17,51.50
2022,05,18,12,18,56.30
2022,05,18,12,19,54.70
2022,05,18,12,20,54.70
2022,05,18,12,21,57.90
2022,05,18,12,22,56.30
2022,05,18,12,23,48.30
2022,05,18,12,24,46.70
2022,05,18,12,25,51.50
2022,05,18,12,26,53.10
2022,05,18,12,27,51.50
2022,05,18,12,28,49.90
2022,05,18,12,29,45.10
2022,05,18,12,30,32.20
2022,05,18,12,31,40.20
2022,05,18,12,32,40.20
2022,05,18,12,33,43.50
2022,05,18,12,34,43.50
2022,05,18,12,35,46.70
2022,05,18,12,36,43.50
2022,05,18,12,37,46.70
2022,05,18,12,38,46.70
2022,05,18,12,39,38.60
2022,05,18,12,40,33.80
2022,05,18,12,41,38.60
2022,05,18,12,42,46.70
2022,05,18,12,43,43.50
2022,05,18,12,44,37.00
2022,05,18,12,45,41.80
2022,05,18,12,46,43.50
2022,05,18,12,47,45.10
2022,05,18,12,48,45.10
2022,05,18,12,49,38.60
2022,05,18,12,50,40.20
2022,05,18,12,51,49.90
2022,05,18,12,52,37.00
2022,05,18,12,53,35.40
2022,05,18,12,54,40.20
2022,05,18,12,55,33.80
2022,05,18,12,56,48.30
2022,05,18,12,57,46.70
2022,05,18,12,58,35.40
2022,05,18,12,59,43.50
2022,05,18,13,00,48.30
2022,05,18,13,01,40.20
2022,05,18,13,02,37.00
2022,05,18,13,03,46.70
2022,05,18,13,04,49.90
2022,05,18,13,05,35.40
2022,05,18,13,06,35.40
2022,05,18,13,07,43.50
2022,05,18,13,08,40.20
2022,05,18,13,09,41.80
2022,05,18,13,10,46.70
2022,05,18,13,11,43.50
2022,05,18,13,12,43.50
2022,05,18,13,13,46.70
2022,05,18,13,14,41.80
2022,05,18,13,15,45.10
2022,05,18,13,16,48.30
2022,05,18,13,17,48.30
2022,05,18,13,18,46.70
2022,05,18,13,19,37.00
2022,05,18,13,20,38.60
2022,05,18,13,21,46.70
2022,05,18,13,22,56.30
2022,05,18,13,23,46.70
2022,05,18,13,24,51.50
2022,05,18,13,25,51.50
2022,05,18,13,26,56.30
2022,05,18,13,27,62.70
2022,05,18,13,28,56.30
2022,05,18,13,29,54.70
2022,05,18,13,30,53.10
2022,05,18,13,31,57.90
2022,05,18,13,32,53.10
2022,05,18,13,33,49.90
2022,05,18,13,34,32.20
2022,05,18,13,35,54.70
2022,05,18,13,36,53.10
2022,05,18,13,37,53.10
2022,05,18,13,38,48.30
2022,05,18,13,39,53.10
2022,05,18,13,40,54.70
2022,05,18,13,41,53.10
2022,05,18,13,42,48.30
2022,05,18,13,43,59.50
2022,05,18,13,44,46.70
2022,05,18,13,45,46.70
2022,05,18,13,46,56.30
2022,05,18,13,47,48.30
2022,05,18,13,48,46.70
2022,05,18,13,49,53.10
2022,05,18,13,50,51.50
2022,05,18,13,51,51.50
2022,05,18,13,52,45.10
2022,05,18,13,53,40.20
2022,05,18,13,54,45.10
2022,05,18,13,55,48.30
2022,05,18,13,56,53.10
2022,05,18,13,57,48.30
2022,05,18,13,58,46.70
2022,05,18,13,59,41.80
2022,05,18,14,00,41.80
2022,05,18,14,01,41.80
2022,05,18,14,02,49.90
2022,05,18,14,03,49.90
2022,05,18,14,04,45.10
2022,05,18,14,05,62.70
2022,05,18,14,06,53.10
2022,05,18,14,07,51.50
2022,05,18,14,08,51.50
2022,05,18,14,09,54.70
2022,05,18,14,10,51.50
2022,05,18,14,11,53.10
2022,05,18,14,12,48.30
2022,05,18,14,13,46.70
2022,05,18,14,14,48.30
2022,05,18,14,15,43.50
2022,05,18,14,16,46.70
2022,05,18,14,17,43.50
2022,05,18,14,18,35.40
2022,05,18,14,19,43.50
2022,05,18,14,20,35.40
2022,05,18,14,21,35.40
2022,05,18,14,22,46.70
2022,05,18,14,23,45.10
2022,05,18,14,24,46.70
2022,05,18,14,25,53.10
2022,05,18,14,26,54.70
2022,05,18,14,27,48.30
2022,05,18,14,28,54.70
2022,05,18,14,29,41.80
2022,05,18,14,30,51.50
2022,05,18,14,31,46.70
2022,05,18,14,32,45.10
2022,05,18,14,33,43.50
2022,05,18,14,34,49.90
2022,05,18,14,35,48.30
2022,05,18,14,36,51.50
2022,05,18,14,37,49.90
2022,05,18,14,38,43.50
2022,05,18,14,39,35.40
2022,05,18,14,40,35.40
2022,05,18,14,41,40.20
2022,05,18,14,42,40.20
2022,05,18,14,43,35.40
2022,05,18,14,44,41.80
2022,05,18,14,45,37.00
2022,05,18,14,46,51.50
2022,05,18,14,47,54.70
2022,05,18,14,48,48.30
2022,05,18,14,49,46.70
2022,05,18,14,50,48.30
2022,05,18,14,51,48.30
2022,05,18,14,52,57.90
2022,05,18,14,53,48.30
2022,05,18,14,54,48.30
2022,05,18,14,55,51.50
2022,05,18,14,56,46.70
2022,05,18,14,57,51.50
2022,05,18,14,58,51.50
2022,05,18,14,59,45.10
2022,05,18,15,00,45.10
2022,05,18,15,01,45.10
2022,05,18,15,02,53.10
2022,05,18,15,03,53.10
2022,05,18,15,04,40.20
2022,05,18,15,05,49.90
2022,05,18,15,06,48.30
2022,05,18,15,07,43.50
2022,05,18,15,08,45.10
2022,05,18,15,09,41.80
2022,05,18,15,10,46.70
2022,05,18,15,11,61.20
2022,05,18,15,12,53.10
2022,05,18,15,13,53.10
2022,05,18,15,14,53.10
2022,05,18,15,15,41.80
2022,05,18,15,16,43.50
2022,05,18,15,17,38.60
2022,05,18,15,18,35.40
2022,05,18,15,19,40.20
2022,05,18,15,20,51.50
2022,05,18,15,21,45.10
2022,05,18,15,22,35.40
2022,05,18,15,23,38.60
2022,05,18,15,24,40.20
2022,05,18,15,25,46.70
2022,05,18,15,26,53.10
2022,05,18,15,27,43.50
2022,05,18,15,28,45.10
2022,05,18,15,29,45.10
2022,05,18,15,30,53.10
2022,05,18,15,31,43.50
2022,05,18,15,32,35.40
2022,05,18,15,33,46.70
2022,05,18,15,34,46.70
2022,05,18,15,35,48.30
2022,05,18,15,36,54.70
2022,05,18,15,37,49.90
2022,05,18,15,38,51.50
2022,05,18,15,39,53.10
2022,05,18,15,40,56.30
2022,05,18,15,41,56.30
2022,05,18,15,42,54.70
2022,05,18,15,43,45.10
2022,05,18,15,44,51.50
2022,05,18,15,45,53.10
2022,05,18,15,46,53.10
2022,05,18,15,47,48.30
2022,05,18,15,48,45.10
2022,05,18,15,49,46.70
2022,05,18,15,50,61.20
2022,05,18,15,51,54.70
2022,05,18,15,52,51.50
2022,05,18,15,53,45.10
2022,05,18,15,54,49.90
2022,05,18,15,55,53.10
2022,05,18,15,56,51.50
2022,05,18,15,57,49.90
2022,05,18,15,58,54.70
2022,05,18,15,59,51.50
2022,05,18,16,00,54.70
2022,05,18,16,01,56.30
2022,05,18,16,02,57.90
2022,05,18,16,03,51.50
2022,05,18,16,04,48.30
2022,05,18,16,05,53.10
2022,05,18,16,06,46.70
2022,05,18,16,07,53.10
2022,05,18,16,08,56.30
2022,05,18,16,09,49.90
2022,05,18,16,10,49.90
2022,05,18,16,11,59.50
2022,05,18,16,12,54.70
2022,05,18,16,13,66.00
2022,05,18,16,14,56.30
2022,05,18,16,15,46.70
2022,05,18,16,16,51.50
2022,05,18,16,17,53.10
2022,05,18,16,18,54.70
2022,05,18,16,19,54.70
2022,05,18,16,20,48.30
2022,05,18,16,21,49.90
2022,05,18,16,22,53.10
2022,05,18,16,23,48.30
2022,05,18,16,24,53.10
2022,05,18,16,25,61.20
2022,05,18,16,26,61.20
2022,05,18,16,27,53.10
2022,05,18,16,28,40.20
2022,05,18,16,29,57.90
2022,05,18,16,30,49.90
2022,05,18,16,31,53.10
2022,05,18,16,32,64.40
2022,05,18,16,33,56.30
2022,05,18,16,34,59.50
2022,05,18,16,35,48.30
2022,05,18,16,36,53.10
2022,05,18,16,37,54.70
2022,05,18,16,38,53.10
2022,05,18,16,39,53.10
2022,05,18,16,40,54.70
2022,05,18,16,41,53.10
2022,05,18,16,42,51.50
2022,05,18,16,43,54.70
2022,05,18,16,44,53.10
2022,05,18,16,45,54.70
2022,05,18,16,46,53.10
2022,05,18,16,47,53.10
2022,05,18,16,48,53.10
2022,05,18,16,49,53.10
2022,05,18,16,50,51.50
2022,05,18,16,51,62.70
2022,05,18,16,52,64.40
2022,05,18,16,53,54.70
2022,05,18,16,54,49.90
2022,05,18,16,55,57.90
2022,05,18,16,56,66.00
2022,05,18,16,57,56.30
2022,05,18,16,58,53.10
2022,05,18,16,59,66.00
2022,05,18,17,00,56.30
2022,05,18,17,01,61.20
2022,05,18,17,02,53.10
2022,05,18,17,03,56.30
2022,05,18,17,04,61.20
2022,05,18,17,05,64.40
2022,05,18,17,06,54.70
2022,05,18,17,07,57.90
2022,05,18,17,08,69.20
2022,05,18,17,09,66.00
2022,05,18,17,10,62.70
2022,05,18,17,11,59.50
2022,05,18,17,12,64.40
2022,05,18,17,13,64.40
2022,05,18,17,14,57.90
2022,05,18,17,15,59.50
2022,05,18,17,16,61.20
2022,05,18,17,17,67.60
2022,05,18,17,18,64.40
2022,05,18,17,19,67.60
2022,05,18,17,20,54.70
2022,05,18,17,21,53.10
2022,05,18,17,22,64.40
2022,05,18,17,23,54.70
2022,05,18,17,24,62.70
2022,05,18,17,25,59.50
2022,05,18,17,26,64.40
2022,05,18,17,27,61.20
2022,05,18,17,28,62.70
2022,05,18,17,29,59.50
2022,05,18,17,30,56.30
2022,05,18,17,31,61.20
2022,05,18,17,32,61.20
2022,05,18,17,33,67.60
2022,05,18,17,34,66.00
2022,05,18,17,35,64.40
2022,05,18,17,36,62.70
2022,05,18,17,37,57.90
2022,05,18,17,38,62.70
2022,05,18,17,39,72.40
2022,05,18,17,40,61.20
2022,05,18,17,41,61.20
2022,05,18,17,42,61.20
2022,05,18,17,43,61.20
2022,05,18,17,44,59.50
2022,05,18,17,45,61.20
2022,05,18,17,46,62.70
2022,05,18,17,47,59.50
2022,05,18,17,48,57.90
2022,05,18,17,49,66.00
2022,05,18,17,50,75.60
2022,05,18,17,51,61.20
2022,05,18,17,52,62.70
2022,05,18,17,53,57.90
2022,05,18,17,54,56.30
2022,05,18,17,55,64.40
2022,05,18,17,56,64.40
2022,05,18,17,57,69.20
2022,05,18,17,58,64.40
2022,05,18,17,59,64.40
2022,05,18,18,00,59.50
2022,05,18,18,01,54.70
2022,05,18,18,02,61.20
2022,05,18,18,03,54.70
2022,05,18,18,04,74.00
2022,05,18,18,05,59.50
2022,05,18,18,06,64.40
2022,05,18,18,07,57.90
2022,05,18,18,08,67.60
2022,05,18,18,09,67.60
2022,05,18,18,10,61.20
2022,05,18,18,11,70.80
2022,05,18,18,12,64.40
2022,05,18,18,13,62.70
2022,05,18,18,14,64.40
2022,05,18,18,15,62.70
2022,05,18,18,16,66.00
2022,05,18,18,17,59.50
2022,05,18,18,18,64.40
2022,05,18,18,19,66.00
2022,05,18,18,20,64.40
2022,05,18,18,21,66.00
2022,05,18,18,22,74.00
2022,05,18,18,23,64.40
2022,05,18,18,24,62.70
2022,05,18,18,25,64.40
2022,05,18,18,26,53.10
2022,05,18,18,27,69.20
2022,05,18,18,28,61.20
2022,05,18,18,29,49.90
2022,05,18,18,30,59.50
2022,05,18,18,31,45.10
2022,05,18,18,32,53.10
2022,05,18,18,33,61.20
2022,05,18,18,34,64.40
2022,05,18,18,35,64.40
2022,05,18,18,36,64.40
2022,05,18,18,37,66.00
2022,05,18,18,38,61.20
2022,05,18,18,39,56.30
2022,05,18,18,40,64.40
2022,05,18,18,41,64.40
2022,05,18,18,42,64.40
2022,05,18,18,43,57.90
2022,05,18,18,44,62.70
2022,05,18,18,45,62.70
2022,05,18,18,46,61.20
2022,05,18,18,47,62.70
2022,05,18,18,48,56.30
2022,05,18,18,49,51.50
2022,05,18,18,50,56.30
2022,05,18,18,51,62.70
2022,05,18,18,52,54.70
2022,05,18,18,53,61.20
2022,05,18,18,54,53.10
2022,05,18,18,55,43.50
2022,05,18,18,56,53.10
2022,05,18,18,57,61.20
2022,05,18,18,58,45.10
2022,05,18,18,59,54.70
2022,05,18,19,00,61.20
2022,05,18,19,01,59.50
2022,05,18,19,02,46.70
2022,05,18,19,03,41.80
2022,05,18,19,04,40.20
2022,05,18,19,05,53.10
2022,05,18,19,06,46.70
2022,05,18,19,07,46.70
2022,05,18,19,08,48.30
2022,05,18,19,09,49.90
2022,05,18,19,10,51.50
2022,05,18,19,11,51.50
2022,05,18,19,12,51.50
2022,05,18,19,13,41.80
2022,05,18,19,14,45.10
2022,05,18,19,15,64.40
2022,05,18,19,16,57.90
2022,05,18,19,17,54.70
2022,05,18,19,18,62.70
2022,05,18,19,19,62.70
2022,05,18,19,20,51.50
2022,05,18,19,21,49.90
2022,05,18,19,22,53.10
2022,05,18,19,23,43.50